Location: Jetmore Motorplex
(37.9889°N, 99.8876°W)
Time: 00:59:59
(UTC+00:00)

Cosmos 968 Rocket - Pass Details

Date: 17 February 2020
Orbit: 740 x 772 km, 74.0° (Epoch: 04 April)

Event Time Altitude Azimuth Distance (km) Brightness Sun altitude
Rises 00:50:41 0° 348° (NNW) 3,209 6.8 -6.9°
Reaches altitude 10° 00:53:10 10° 356° (N) 2,285 5.9 -7.4°
Maximum altitude 00:58:05 43° 67° (ENE) 1,066 3.8 -8.4°
Drops below altitude 10° 01:03:01 10° 138° (SE) 2,292 5.7 -9.3°
Sets 01:05:30 0° 145° (SE) 3,218 6.5 -9.8°
